STARLINK-1229 (45231 NORAD) Tracking and Keplerian Element Data

This shows tracking and keplerian element data for the satellite.

Feedback or suggestion? Click here.




ElementValue
Catalog45231
NameSTARLINK-1229
Epoch Orbit751
Epoch Day94.25001157
Epoch Year2020
RAAN42.8569
Inclination52.9973
Eccentricity0.0001662
Argument of Perigee50.4181
Mean Anonmoly79.0118
Mean Motion15.62710921
Decay Rate0.00033067
L11 45231U 20012BF 20094.25001157 .00033067 00000-0 36608-3 0 9991
L22 45231 52.9973 42.8569 0001662 50.4181 79.0118 15.62710921 7513

Live tracking and technical data element details for STARLINK-1229 (NORAD 45231). STARLINK-1229 can be tracked NOW for your location showing map with azimuth and elevation plus other details from your city location.

Track the satellite on the map from your city or location and see movement details for azimuth, elevation, latitude, longitude, range, height, and movement on the map or in text.







IsCatalogInMostPopularTable: catalog: 45231, numindb: 7
Update: records affected: 1



GetName: 45231 STARLINK-1229

Hit Count: updated at: Mon, 06 Apr 2020 11:23:39 GMT